Content
SEND FEEDBACK

Daily
Averages
Monthly
Summary
United States of America

WILMINGTON, NORTH CAROLINA


Home > North America > United States > North Carolina
Elevation: 72 feet     Latitude: 34 16N     Longitude: 077 54W

WEATHER
 
SELECT A DAY
Number of Records: 212,260;   Date Range: 1/1/95 - 10/19/14
 
SHARE

PRINT THIS DATA

[ ← Previous Day ]
WEATHER ALMANAC - JANUARY 4, 2013
[ Next Day → ]
[ °C ]   °F
Weather ElementAverageHighLow
Temperature39.5 °F53.1 °F (3:53 pm)30.9 °F (2:53 am)
Dewpoint30.3 °F34 °F (8:53 am)28 °F (6:53 am)
Humidity72.9 %93 % (2:03 am)38 % (3:53 pm)
Barometer30.28 in30.34 in (9:53 am)30.22 in (4:53 pm)
Wind Speed3.5 mph10.4 mph (1:53 pm)
Weather ElementAverage
Visibility7.3 mi
Wind DirectionESE (123.3 °)

Weather ElementTotal
Precipitation---
Heating Degree Days23 (Base 65)
Averaged from 27 records on January 4, 2013
WEATHER CONDITIONS BREAKOUT
WIND DIRECTION BREAKOUT
WEATHER BY HOUR - JANUARY 4, 2013
[ °C ]   °F
Local TimeTemperatureDewpointHumidityBarometerVisibilityWind DirectionWind SpeedGust SpeedPrecipitationEventsConditions
1:41 AM33.8 °F30.2 °F87 %30.26 in1.8 miCalmClear
1:46 AM33.8 °F30.2 °F87 %30.26 in0.8 miCalmClear
1:53 AM33.1 °F30.9 °F92 %30.26 in1.0 miCalmClear
1:56 AM33.8 °F30.2 °F87 %30.26 in2.0 miCalmClear
2:03 AM32.0 °F30.2 °F93 %30.26 in5.0 miCalmClear
2:53 AM30.9 °F28.9 °F92 %30.28 in5.0 miCalmClear
3:53 AM30.9 °F28.9 °F92 %30.28 in5.0 miNW (320°)3.5 mphClear
4:53 AM32.0 °F28.9 °F88 %30.28 in7.0 miCalmClear
5:53 AM30.9 °F28.9 °F92 %30.29 in5.0 miCalmClear
6:53 AM30.9 °F28.0 °F89 %30.30 in5.0 miCalmClear
7:53 AM32.0 °F28.4 °F87 %30.30 in4.0 miCalmClear
8:53 AM37.9 °F34.0 °F86 %30.32 in6.0 miCalmClear
9:53 AM44.1 °F30.9 °F60 %30.34 in10.0 miNorth (10°)5.8 mphClear
10:53 AM46.0 °F28.0 °F50 %30.33 in10.0 miNNW (340°)8.1 mphClear
11:53 AM48.0 °F28.9 °F48 %30.29 in10.0 miVariable5.8 mphClear
12:53 PM50.0 °F28.9 °F44 %30.26 in10.0 miNW (320°)9.2 mphClear
1:53 PM52.0 °F28.0 °F40 %30.24 in10.0 miNW (310°)10.4 mphClear
2:53 PM52.0 °F28.0 °F40 %30.23 in10.0 miWNW (290°)6.9 mphClear
3:53 PM53.1 °F28.0 °F38 %30.23 in10.0 miWest (280°)9.2 mphClear
4:53 PM48.0 °F32.0 °F54 %30.22 in10.0 miSW (230°)6.9 mphClear
5:53 PM45.0 °F32.0 °F60 %30.24 in10.0 miWSW (240°)4.6 mphClear
6:53 PM44.1 °F33.1 °F65 %30.26 in10.0 miSW (230°)6.9 mphClear
7:53 PM42.1 °F34.0 °F73 %30.28 in10.0 miWSW (240°)6.9 mphClear
8:53 PM39.2 °F33.8 °F81 %30.29 in10.0 miWest (260°)4.6 mphClear
9:53 PM37.9 °F32.0 °F79 %30.30 in10.0 miCalmClear
10:53 PM37.0 °F32.0 °F82 %30.30 in10.0 miWest (260°)5.8 mphClear
11:53 PM37.0 °F32.0 °F82 %30.29 in10.0 miCalmClear
Hourly data recorded from KILM, located miles away from Wilmington, North Carolina







STORIES FROM OUR PARTNERS